Regional Weather Roundup
Issued by NWS Upton, NY

Current Version | Previous Version | Graphics & Text | Print | Product List | Glossary Off
Versions: 1 2 3 4 5 6 7 8 9 10 11 12 13 14 15 16 17 18 19 20 21 22 23 24 25 26 27 28 29 30

000
ASUS41 KOKX 170108
RWROKX

REGIONAL WEATHER ROUNDUP
NATIONAL WEATHER SERVICE NEW YORK NY
800 PM EST SAT DEC 16 2017

NOTE: "FAIR" INDICATES FEW OR NO CLOUDS BELOW 12,000 FEET WITH NO
SIGNIFICANT WEATHER AND/OR OBSTRUCTIONS TO VISIBILITY.

NYZ071-072-176-178-NJZ106-104-170200-
NEW YORK CITY METRO AREA

CITY           SKY/WX    TMP DP  RH WIND       PRES   REMARKS
Central Park   CLOUDY    37  25  61 W5        30.15R WCI  33
Bronx Bot Gard   N/A     36  25  64 NW3       30.15R
Bronx Lehman C   N/A     36  27  69 NW7         N/A  WCI  30
LaGuardia APRT CLOUDY    39  26  59 NW9       30.13R WCI  33
Queens College   N/A     37  27  65 N6          N/A  WCI  33
Kennedy INTL   CLOUDY    39  26  59 W10       30.15R WCI  32
Breezy Point     N/A     39 N/A N/A W10G17      N/A  WCI  32
Brooklyn Coll    N/A     41  27  56 W7          N/A
Staten Island    N/A     37  27  65 W5          N/A  WCI  34
Newark/Liberty CLOUDY    38  26  62 NW6       30.14R WCI  33
Teterboro      CLOUDY    37  25  61 NW6       30.14R WCI  32
$$

NYZ177-179-078>081-170200-
LONG ISLAND NEW YORK

CITY           SKY/WX    TMP DP  RH WIND       PRES   REMARKS
Jones Beach      N/A     39 N/A N/A NW8         N/A  WCI  34
Wantagh          N/A     37  27  65 NW5         N/A  WCI  34
Matinecock PT    N/A     37 N/A N/A NW14        N/A  WCI  29
Farmingdale    CLOUDY    37  26  64 NW7       30.13R WCI  32
MacArthur/ISP  CLOUDY    36  27  69 NW8       30.12R WCI  30
Shirley        CLOUDY    36  28  73 NW9       30.12R WCI  29
Mt Sinai Harb    N/A    N/A N/A N/A NW12G17     N/A
Westhampton    CLOUDY    36  25  64 NW9       30.12R WCI  29
East Hampton   CLOUDY    36  25  64 NW6       30.10R WCI  31
Southold         N/A     36  27  69 NW12        N/A  WCI  27
Montauk          N/A     37  24  59 NW16G22   30.11R WCI  28
$$

NYZ052-065-067-170200-
HUDSON VALLEY

CITY           SKY/WX    TMP DP  RH WIND       PRES   REMARKS
White Plains   CLOUDY    33  25  72 NW8       30.11R WCI  26
Larchmont Harb   N/A     36 N/A N/A W6          N/A  WCI  31
Croton On Huds   N/A     34 N/A N/A NW8         N/A  WCI  27
Somers           N/A     32  23  69 W6          N/A  WCI  26
Brewster         N/A     32  23  69 NW6         N/A  WCI  26
Newburgh       CLOUDY    30  25  80 W9        30.12R WCI  22
Montgomery     CLOUDY    31  20  63 VRB3      30.12R
Otisville        N/A     30  23  74 NW1         N/A
Warwick          N/A     32  27  80 W5          N/A  WCI  27
Suffern          N/A     32  25  74 NW6         N/A  WCI  26
Poughkeepsie   CLOUDY    31  20  63 NE3       30.13R
Albany         PTCLDY    23  14  68 W6        30.15R WCI  16
$$

NJZ001-105-106-008-010-013-015-019>022-104-170200-
NEW JERSEY

CITY           SKY/WX    TMP DP  RH WIND       PRES   REMARKS
Newark/Liberty CLOUDY    38  26  62 NW6       30.14R WCI  33
Teterboro      CLOUDY    37  25  61 NW6       30.14R WCI  32
Caldwell       CLOUDY    35  25  66 CALM      30.15R
Somerville     CLOUDY    31  27  85 CALM      30.12R
Linden         CLOUDY    38  24  58 CALM      30.14R
Perth Amboy      N/A     39 N/A N/A W5          N/A
Sussex         CLOUDY    32  25  75 CALM      30.12R
Andover        NOT AVBL
Trenton        CLOUDY    39  25  57 W5        30.13R
Millville      CLEAR     36  27  69 SW5       30.16R WCI  32
Atlantic City  CLOUDY    39  27  62 SW8       30.16R WCI  33
Wrightstown    CLOUDY    38  26  63 W10       30.11R WCI  30
Toms River     CLOUDY    38  26  62 SW8       30.15R WCI  32
Belmar         CLOUDY    38  24  57 SW7       30.15R WCI  33
$$

PAZ047>061-062-071-170200-
EASTERN PENNSYLVANIA

CITY           SKY/WX    TMP DP  RH WIND       PRES   REMARKS
Philadelphia   MOCLDY    39  26  59 SW12      30.15R WCI  32
Allentown      CLOUDY    38  26  62 W6        30.12R WCI  33
Scranton       CLOUDY    30  24  78 N9        30.12R WCI  22
$$

CTZ002-004>006-009-010-012-RIZ004-006-007-MAZ004-011-015-170200-
SOUTHERN NEW ENGLAND
 IN CT

CITY           SKY/WX    TMP DP  RH WIND       PRES   REMARKS
Bradley INTL   PTCLDY    27  17  66 N6        30.13R WCI  20
Hartford       PTCLDY    30  20  66 NW6       30.14R WCI  24
Danbury        CLOUDY    33  22  63 NW3       30.11R
Wtrbury/Oxford CLOUDY    27  21  78 N9        30.10R WCI  18
Norwalk Harbor   N/A     34 N/A N/A W10         N/A  WCI  26
Bridgeport     CLOUDY    35  24  64 W8        30.13R WCI  29
Meriden        PTCLDY    29  20  69 NW6       30.13R WCI  23
New Haven      CLOUDY    35  24  64 NW7       30.12R WCI  29
Chester        CLOUDY    30  21  69 N7        30.11R WCI  23
Groton         CLOUDY    31  22  69 N7        30.12R WCI  24
Wilimantic     CLOUDY    30  19  63 N7        30.12R WCI  23

 IN RI

CITY           SKY/WX    TMP DP  RH WIND       PRES   REMARKS
Providence     CLEAR     29  19  66 NW8       30.11R WCI  21
Block Island   MOCLDY    32  24  72 N12G18    30.11R WCI  23
Westerly       CLOUDY    32  22  66 NW5       30.12R WCI  27
 IN MA

CITY           SKY/WX    TMP DP  RH WIND       PRES   REMARKS
Boston         PTCLDY    29  16  58 W14       30.09R WCI  18
Worcester      CLEAR     22  13  68 W10       30.03R WCI  11
Westfield      CLEAR     26  15  63 NW10      30.12R WCI  16
Provincetown   CLOUDY    32  20  61 NW20G31   30.06  WCI  20
Nantucket      PTCLDY    33  21  61 NW18      30.06R WCI  22
$$

ANZ330-335-338-340-345-350-353-355-170200-
COASTAL MARINE OBSERVATIONS


STATION/POSITION TIME  SKY/WX   TEMP    WIND        PRES    VSBY  WAVE
                                AIR SEA DIR/SP/G                  HT/PER
                 (UTC)          (F)     (DEG/KT/KT) (MB)    (MI)  (FT/S)
NY HARB ENTRANCE 2350            43 52  250/ 21/ 27 1018.1          3/ 5
20 S FIRE ISLAND 2350            44 51  270/ 27/ 33 1018.3          7/ 6
GREAT SOUTH BAY  NOT AVBL
HUDSON CANYON    2350            47 55  280/ 25/ 31 1018.6          7/ 7
KINGS POINT      0024            37 40   40/  9/ 10 1020.9
EXECUTION ROCKS  0030            38     330/  8/ 10   N/A
WESTERN LI SOUND NOT AVBL
CENTRAL LI SOUND 2345            39     290/ 17/ 21   N/A           5
ROBBINS REEF     0048            39     290/ 11/ 12 1020.7
$$


>>>>>>>>>>>>>>>>>>>>>>>>>>>> KEY <<<<<<<<<<<<<<<<<<<<<<<<<<<
>                                                          <
>     SKY/WX - Sky Condition/Present Weather               <
>     TMP    - Temperature in Fahrenheit                   <
>     DP     - Dew Point in Fahrenheit                     <
>     RH     - Relative Humidity in Percent                <
>     WIND   - Direction (from) and Speed in MPH           <
>     PRES   - Mean Sea Level Pressure (inches of Hg)      <
>     WCI    - Wind Chill Index                            <
>     VSB    - VISIBILITY IN MILES                         <
>     HX     - HEAT INDEX                                  <
>     TC     - TEMPERATURE IN CELSIUS                      <
>     VRB    - VARIABLE WIND DIRECTION                     <
>                                                          <
>>>>>>>>>>>>>>>>>>>>>>>>>>>> KEY <<<<<<<<<<<<<<<<<<<<<<<<<<<




USA.gov is the U.S. government's official web portal to all federal, state and local government web resources and services.